Phoenix, AZ

7:43 PM MST on October 18, 2017 (GMT -0700)
Phoenix Sky Harbor International

Weather History for KPHX - March, 2012

Change the Weather History Date:

Friday, March 16, 2012

  Actual Average Record
Temperature  
Mean Temperature 72 °F 65 °F  
Max Temperature 87 °F 77 °F 99 °F (2007)
Min Temperature 56 °F 54 °F 34 °F (1917)
Degree Days  
Heating Degree Days 0 3  
Month to date heating degree days 33 53  
Since 1 July heating degree days 790 886  
Cooling Degree Days 7 3  
Month to date cooling degree days 31 31  
Year to date cooling degree days 43 48  
Growing Degree Days 20 (Base 50)    
Moisture  
Dew Point 20 °F    
Average Humidity 16    
Maximum Humidity 24    
Minimum Humidity 8    
Precipitation  
Precipitation 0.00 in 0.04 in 1.14 in (1937)
Month to date precipitation 0.00 0.60  
Year to date precipitation T 2.43  
Snow  
Snow 0.00 in - - ()
Month to date snowfall 0.0  
Year to date snowfall 0.0  
Since 1 July snowfall 0.0  
Snow Depth 0.00 in    
Sea Level Pressure  
Sea Level Pressure 29.85 in    
Wind  
Wind Speed 4 mph (ESE)    
Max Wind Speed 9 mph    
Max Gust Speed 15 mph    
Visibility 10 miles    
Events      
T = Trace of Precipitation, MM = Missing Value Source: NWS Daily Summary

Daily Weather History Graph

Daily Weather History Graph

Search for Another Location

Airport or City:

Trip Planner

Search our weather history database for the weather conditions in past years. The results will help you decide how hot, cold, wet, or windy it might be!

Date:

Astronomy

Mar. 16, 2012 Rise Set
Actual Time 6:36 AM MST 6:37 PM MST
Civil Twilight 6:11 AM MST 7:01 PM MST
Nautical Twilight 5:42 AM MST 7:30 PM MST
Astronomical Twilight 5:13 AM MST 7:59 PM MST
Moon 2:42 AM MST (3/16) 1:16 PM MST (3/16)
Length of Visible Light 12h 50m
Length of Day
12h 00m
Waning Crescent, 32% of the Moon is Illuminated
Mar 16
Waning Crescent
Mar 22
New
Mar 30
First Quarter
Apr 6
Full
Apr 13
Last Quarter

Hourly Weather History & Observations

Time (MST) Temp. Dew Point Humidity Pressure Visibility Wind Dir Wind Speed Gust Speed Precip Events Conditions
12:51 AM 63.0 °F 24.1 °F 23% 29.91 in 10.0 mi SE 4.6 mph - N/A   Clear
1:51 AM 61.0 °F 19.9 °F 21% 29.91 in 10.0 mi East 6.9 mph - N/A   Clear
2:51 AM 61.0 °F 17.1 °F 18% 29.89 in 10.0 mi East 6.9 mph - N/A   Clear
3:51 AM 57.9 °F 19.9 °F 23% 29.88 in 10.0 mi ESE 4.6 mph - N/A   Clear
4:51 AM 57.0 °F 21.0 °F 25% 29.89 in 10.0 mi ESE 6.9 mph - N/A   Clear
5:51 AM 57.2 °F 19.4 °F 23% 29.94 in 10.0 mi ESE 6.9 mph - N/A   Clear
6:51 AM 55.9 °F 19.9 °F 25% 29.91 in 10.0 mi ESE 8.1 mph - N/A   Clear
7:51 AM 60.1 °F 19.0 °F 20% 29.92 in 10.0 mi East 9.2 mph - N/A   Partly Cloudy
8:51 AM 64.0 °F 19.9 °F 18% 29.93 in 10.0 mi East 8.1 mph - N/A   Partly Cloudy
9:51 AM 69.1 °F 18.0 °F 14% 29.94 in 10.0 mi ESE 4.6 mph - N/A   Partly Cloudy
10:51 AM 72.0 °F 19.0 °F 13% 29.92 in 10.0 mi Calm Calm - N/A   Partly Cloudy
11:51 AM 75.0 °F 19.0 °F 12% 29.90 in 10.0 mi Calm Calm - N/A   Partly Cloudy
12:51 PM 81.0 °F 19.0 °F 10% 29.87 in 10.0 mi ESE 4.6 mph - N/A   Partly Cloudy
1:51 PM 82.0 °F 18.0 °F 9% 29.83 in 10.0 mi Calm Calm - N/A   Partly Cloudy
2:51 PM 84.0 °F 17.1 °F 8% 29.81 in 10.0 mi ESE 5.8 mph - N/A   Scattered Clouds
3:51 PM 84.0 °F 17.1 °F 8% 29.79 in 10.0 mi WNW 4.6 mph - N/A   Scattered Clouds
4:51 PM 84.0 °F 17.1 °F 8% 29.77 in 10.0 mi Calm Calm - N/A   Scattered Clouds
5:51 PM 84.9 °F 18.0 °F 8% 29.76 in 10.0 mi Variable 4.6 mph - N/A   Scattered Clouds
6:51 PM 82.0 °F 18.0 °F 9% 29.76 in 10.0 mi West 5.8 mph - N/A   Scattered Clouds
7:51 PM 81.0 °F 19.9 °F 10% 29.76 in 10.0 mi NNW 4.6 mph - N/A   Partly Cloudy
8:51 PM 75.0 °F 23.0 °F 14% 29.76 in 10.0 mi Calm Calm - N/A   Partly Cloudy
9:51 PM 75.9 °F 23.0 °F 14% 29.77 in 10.0 mi Calm Calm - N/A   Partly Cloudy
10:51 PM 73.0 °F 23.0 °F 15% 29.77 in 10.0 mi Calm Calm - N/A   Clear
11:51 PM 68.0 °F 27.0 °F 21% 29.75 in 10.0 mi East 6.9 mph - N/A   Clear